FENGYUN 1C DEB, 35139

Orbit data source: Space-Track

FENGYUN 1C DEB, 35139 is space debris in SSO originally from a launch on Mon, 10 May 1999 UTC launched from the Taiyaun Space Center, China (TSC). Fengyun 1C debris stems from the Chinese weather satellite Fengyun-1C, which was intentionally destroyed by a Chinese anti-satellite missile in 2007. This event dramatically increased the amount of space debris, with thousands of trackable fragments posing hazards to satellites and human spaceflight. The Fengyun 1C debris cloud has become a focal point in discussions about space sustainability and the need for international regulations to prevent the creation of new debris.

Loading next visibility...
Identifier
35139, 1999-025DLT
Orbit
SSO
Country
Flag of CNCN / PRC
Related business
Manufacturer
Unknown
Mission
Spacecraft
Bus & Motor
Unknown
Mass
Unknown
Launch date (UTC)
1999-05-10 (27 years ago)
Launch vehicle
Unknown
Launch site
Taiyaun Space Center, China (TSC)
Object type
Payload
Rocket body
Debris
Shape & HBR
Unknown shape, 0.1 m
Radar Cross Section
Small (<0.1 m²)

Expand to show TLE details & history
Last TLE update: 1 day ago

TLE from 1 day ago
0 FENGYUN 1C DEB
1 35139U 99025DLT 26163.29213549  .00000607  00000-0  28990-3 0  9993
2 35139  98.5837 168.4870 0069906 130.3066 230.4249 14.21394662667322
Epoch: 2026-06-12T07:00Z
TLE epoch observation values (Epoch: 2026-06-12T07:00:40.506Z)
Latitude
Longitude
162.69455°
Altitude
855.836 km
Speed
7.408 km/s
True Right ascension
11h 13m 56s
True Declination
0° 00' 00"
Sunlit
Object was in daylight at epoch
Visualization orbit readout
Latitude
Unknown
Longitude
Unknown
Altitude
Unknown
Speed
Unknown
Apparent Right ascension
Unknown
Apparent Declination
Unknown
Sunlit
N/A
Visualization observer readout
Local Sidereal Time
01:23:00
Azimuth
Unknown
Elevation
Unknown
Doppler factor
Unknown
Orbital elements
Apogee altitude
868.094 km
Perigee altitude
767.487 km
Semi-major axis
7,195.928 km
Eccentricity
0.00699
Inclination
98.5837°
RAAN
168.487°
Arg. of periapsis
130.3066°
True anomaly
229.81088°
Mean anomaly
230.4249°
Eccentric anomaly
230.11755°
Mean motion
3.5556 °/min
Orbital period
101.25 mins
BSTAR
0.0002899
Loading maneuver chart data...
Computing Atmospheric mass density...

Documentation

Showing up to 5 results
|